contact:dominique.lefevre@mio.osupytheas.fr, maurice.libes@osupytheas.fr, didier.mallarino@osupytheas.fr
Project:EMSO http://www.emso-fr.org/EMSO-France
Depth: 2436.0 m
Title:EMSO Ligure Ouest : Data MII capteur MICROCAT
DateTime_Computer,Latitude,Longitude,Temperature,Conductivity,Pressure,DateTime_Instrument
DateTime_Computer,Latitude,Longitude,degC,S m-1,dbar,DateTime_Instrument
2020-06-03T00:01:47Z,42.805,6.029,13.2974,4.59972,2469.993,2020-6-03T02:02:31Z
2020-06-03T00:04:51Z,42.805,6.029,13.2976,4.59973,2469.993,2020-6-03T02:05:34Z
2020-06-03T00:07:54Z,42.805,6.029,13.2971,4.59972,2469.97,2020-6-03T02:08:37Z
2020-06-03T00:10:57Z,42.805,6.029,13.2972,4.59973,2469.984,2020-6-03T02:11:40Z
2020-06-03T00:14:00Z,42.805,6.029,13.2973,4.59973,2469.97,2020-6-03T02:14:44Z
2020-06-03T00:17:03Z,42.805,6.029,13.2970,4.59973,2469.993,2020-6-03T02:17:47Z
2020-06-03T00:20:07Z,42.805,6.029,13.2971,4.59973,2469.993,2020-6-03T02:20:50Z
2020-06-03T00:23:10Z,42.805,6.029,13.2976,4.59972,2469.97,2020-6-03T02:23:53Z
2020-06-03T00:26:13Z,42.805,6.029,13.2971,4.59973,2469.984,2020-6-03T02:26:57Z
2020-06-03T00:29:16Z,42.805,6.029,13.2974,4.59973,2470.017,2020-6-03T02:30:00Z
2020-06-03T00:32:19Z,42.805,6.029,13.2974,4.59973,2469.993,2020-6-03T02:33:03Z
2020-06-03T00:35:23Z,42.805,6.029,13.2973,4.59973,2470.007,2020-6-03T02:36:06Z
2020-06-03T00:38:26Z,42.805,6.029,13.2972,4.59972,2469.993,2020-6-03T02:39:09Z
2020-06-03T00:41:29Z,42.805,6.029,13.2971,4.59972,2469.993,2020-6-03T02:42:13Z
2020-06-03T00:44:32Z,42.805,6.029,13.2974,4.59973,2470.007,2020-6-03T02:45:16Z
2020-06-03T00:47:36Z,42.805,6.029,13.2975,4.59973,2469.984,2020-6-03T02:48:19Z
2020-06-03T00:50:39Z,42.805,6.029,13.2975,4.59973,2470.003,2020-6-03T02:51:22Z
2020-06-03T00:53:42Z,42.805,6.029,13.2976,4.59972,2470.017,2020-6-03T02:54:25Z
2020-06-03T00:56:45Z,42.805,6.029,13.2974,4.59973,2470.017,2020-6-03T02:57:29Z
2020-06-03T00:59:48Z,42.805,6.029,13.2973,4.59973,2470.017,2020-6-03T03:00:32Z
2020-06-03T01:02:52Z,42.805,6.029,13.2973,4.59973,2470.053,2020-6-03T03:03:35Z
2020-06-03T01:05:55Z,42.805,6.029,13.2968,4.59973,2470.017,2020-6-03T03:06:38Z
2020-06-03T01:08:58Z,42.805,6.029,13.2968,4.59973,2470.03,2020-6-03T03:09:42Z
2020-06-03T01:12:01Z,42.805,6.029,13.2970,4.59973,2470.04,2020-6-03T03:12:45Z
2020-06-03T01:15:05Z,42.805,6.029,13.2972,4.59973,2470.04,2020-6-03T03:15:48Z
2020-06-03T01:18:08Z,42.805,6.029,13.2974,4.59973,2470.03,2020-6-03T03:18:51Z
2020-06-03T01:21:11Z,42.805,6.029,13.2974,4.59973,2470.017,2020-6-03T03:21:54Z
2020-06-03T01:24:14Z,42.805,6.029,13.2976,4.59973,2470.017,2020-6-03T03:24:58Z
2020-06-03T01:27:18Z,42.805,6.029,13.2976,4.59973,2470.017,2020-6-03T03:28:01Z
2020-06-03T01:30:21Z,42.805,6.029,13.2972,4.59974,2470.017,2020-6-03T03:31:04Z
2020-06-03T01:33:24Z,42.805,6.029,13.2974,4.59973,2470.063,2020-6-03T03:34:08Z
2020-06-03T01:36:27Z,42.805,6.029,13.2971,4.59974,2470.017,2020-6-03T03:37:11Z
2020-06-03T01:39:31Z,42.805,6.029,13.2970,4.59973,2470.017,2020-6-03T03:40:14Z
2020-06-03T01:42:34Z,42.805,6.029,13.2973,4.59973,2470.04,2020-6-03T03:43:17Z
2020-06-03T01:45:37Z,42.805,6.029,13.2974,4.59974,2470.053,2020-6-03T03:46:21Z
2020-06-03T01:48:40Z,42.805,6.029,13.2979,4.59973,2470.04,2020-6-03T03:49:24Z
2020-06-03T01:51:44Z,42.805,6.029,13.2974,4.59973,2470.063,2020-6-03T03:52:27Z
2020-06-03T01:54:47Z,42.805,6.029,13.2971,4.59973,2470.063,2020-6-03T03:55:30Z
2020-06-03T01:57:50Z,42.805,6.029,13.2974,4.59974,2470.063,2020-6-03T03:58:34Z
2020-06-03T02:00:53Z,42.805,6.029,13.2976,4.59975,2470.063,2020-6-03T04:01:37Z
2020-06-03T02:03:57Z,42.805,6.029,13.2971,4.59974,2470.017,2020-6-03T04:04:40Z
2020-06-03T02:07:00Z,42.805,6.029,13.2975,4.59973,2470.077,2020-6-03T04:07:43Z
2020-06-03T02:10:03Z,42.805,6.029,13.2974,4.59975,2470.087,2020-6-03T04:10:46Z
2020-06-03T02:13:06Z,42.805,6.029,13.2974,4.59974,2470.063,2020-6-03T04:13:50Z
2020-06-03T02:16:09Z,42.805,6.029,13.2971,4.59974,2470.04,2020-6-03T04:16:53Z
2020-06-03T02:19:13Z,42.805,6.029,13.2974,4.59974,2470.087,2020-6-03T04:19:56Z
2020-06-03T02:22:16Z,42.805,6.029,13.2972,4.59973,2470.053,2020-6-03T04:22:59Z
2020-06-03T02:25:19Z,42.805,6.029,13.2971,4.59973,2470.087,2020-6-03T04:26:03Z
2020-06-03T02:28:22Z,42.805,6.029,13.2971,4.59973,2470.077,2020-6-03T04:29:06Z
2020-06-03T02:31:26Z,42.805,6.029,13.2973,4.59973,2470.087,2020-6-03T04:32:09Z
2020-06-03T02:34:29Z,42.805,6.029,13.2975,4.59973,2470.087,2020-6-03T04:35:12Z
2020-06-03T02:37:32Z,42.805,6.029,13.2973,4.59973,2470.077,2020-6-03T04:38:16Z
2020-06-03T02:40:35Z,42.805,6.029,13.2975,4.59973,2470.04,2020-6-03T04:41:19Z
2020-06-03T02:43:39Z,42.805,6.029,13.2976,4.59974,2470.087,2020-6-03T04:44:22Z
2020-06-03T02:46:42Z,42.805,6.029,13.2971,4.59973,2470.087,2020-6-03T04:47:25Z
2020-06-03T02:49:45Z,42.805,6.029,13.2970,4.59973,2470.124,2020-6-03T04:50:28Z
2020-06-03T02:52:48Z,42.805,6.029,13.2976,4.59973,2470.077,2020-6-03T04:53:32Z
2020-06-03T02:55:52Z,42.805,6.029,13.2973,4.59975,2470.063,2020-6-03T04:56:35Z
2020-06-03T02:58:55Z,42.805,6.029,13.2970,4.59973,2470.063,2020-6-03T04:59:38Z
2020-06-03T03:01:58Z,42.805,6.029,13.2974,4.59973,2470.087,2020-6-03T05:02:41Z
2020-06-03T03:05:01Z,42.805,6.029,13.2972,4.59974,2470.133,2020-6-03T05:05:45Z
2020-06-03T03:08:04Z,42.805,6.029,13.2971,4.59974,2470.11,2020-6-03T05:08:48Z
2020-06-03T03:11:08Z,42.805,6.029,13.2975,4.59974,2470.11,2020-6-03T05:11:51Z
2020-06-03T03:14:11Z,42.805,6.029,13.2974,4.59974,2470.133,2020-6-03T05:14:54Z
2020-06-03T03:17:14Z,42.805,6.029,13.2974,4.59973,2470.087,2020-6-03T05:17:58Z
2020-06-03T03:20:17Z,42.805,6.029,13.2976,4.59974,2470.087,2020-6-03T05:21:01Z
2020-06-03T03:23:21Z,42.805,6.029,13.2975,4.59973,2470.11,2020-6-03T05:24:04Z
2020-06-03T03:26:24Z,42.805,6.029,13.2971,4.59973,2470.124,2020-6-03T05:27:07Z
2020-06-03T03:29:27Z,42.805,6.029,13.2975,4.59974,2470.1,2020-6-03T05:30:11Z
2020-06-03T03:32:30Z,42.805,6.029,13.2973,4.59974,2470.11,2020-6-03T05:33:14Z
2020-06-03T03:35:34Z,42.805,6.029,13.2973,4.59973,2470.133,2020-6-03T05:36:17Z
2020-06-03T03:38:37Z,42.805,6.029,13.2971,4.59973,2470.124,2020-6-03T05:39:21Z
2020-06-03T03:41:40Z,42.805,6.029,13.2973,4.59974,2470.11,2020-6-03T05:42:24Z
2020-06-03T03:44:44Z,42.805,6.029,13.2974,4.59973,2470.133,2020-6-03T05:45:27Z
2020-06-03T03:47:47Z,42.805,6.029,13.2974,4.59974,2470.133,2020-6-03T05:48:30Z
2020-06-03T03:50:50Z,42.805,6.029,13.2972,4.59974,2470.147,2020-6-03T05:51:33Z
2020-06-03T03:53:53Z,42.805,6.029,13.2976,4.59974,2470.133,2020-6-03T05:54:37Z
2020-06-03T03:56:56Z,42.805,6.029,13.2974,4.59974,2470.133,2020-6-03T05:57:40Z
2020-06-03T04:00:00Z,42.805,6.029,13.2971,4.59973,2470.147,2020-6-03T06:00:43Z
2020-06-03T04:03:03Z,42.805,6.029,13.2974,4.59974,2470.147,2020-6-03T06:03:46Z
2020-06-03T04:06:06Z,42.805,6.029,13.2972,4.59973,2470.133,2020-6-03T06:06:49Z
2020-06-03T04:09:09Z,42.805,6.029,13.2971,4.59974,2470.11,2020-6-03T06:09:53Z
2020-06-03T04:12:12Z,42.805,6.029,13.2974,4.59976,2470.147,2020-6-03T06:12:56Z
2020-06-03T04:15:16Z,42.805,6.029,13.2972,4.59974,2470.156,2020-6-03T06:15:59Z
2020-06-03T04:18:19Z,42.805,6.029,13.2971,4.59973,2470.147,2020-6-03T06:19:02Z
2020-06-03T04:21:22Z,42.805,6.029,13.2971,4.59974,2470.147,2020-6-03T06:22:06Z
2020-06-03T04:24:25Z,42.805,6.029,13.2972,4.59973,2470.147,2020-6-03T06:25:09Z
2020-06-03T04:27:29Z,42.805,6.029,13.2974,4.59975,2470.147,2020-6-03T06:28:12Z
2020-06-03T04:30:32Z,42.805,6.029,13.2973,4.59974,2470.156,2020-6-03T06:31:15Z
2020-06-03T04:33:35Z,42.805,6.029,13.2976,4.59973,2470.133,2020-6-03T06:34:18Z
2020-06-03T04:36:38Z,42.805,6.029,13.2972,4.59973,2470.18,2020-6-03T06:37:22Z
2020-06-03T04:39:41Z,42.805,6.029,13.2971,4.59974,2470.156,2020-6-03T06:40:25Z
2020-06-03T04:42:45Z,42.805,6.029,13.2971,4.59973,2470.194,2020-6-03T06:43:28Z
2020-06-03T04:45:48Z,42.805,6.029,13.2976,4.59975,2470.194,2020-6-03T06:46:31Z
2020-06-03T04:48:51Z,42.805,6.029,13.2974,4.59974,2470.171,2020-6-03T06:49:35Z
2020-06-03T04:51:54Z,42.805,6.029,13.2972,4.59973,2470.156,2020-6-03T06:52:38Z
2020-06-03T04:54:58Z,42.805,6.029,13.2969,4.59973,2470.156,2020-6-03T06:55:41Z
2020-06-03T04:58:01Z,42.805,6.029,13.2971,4.59974,2470.156,2020-6-03T06:58:44Z
2020-06-03T05:01:04Z,42.805,6.029,13.2974,4.59973,2470.171,2020-6-03T07:01:47Z
2020-06-03T05:04:07Z,42.805,6.029,13.2974,4.59975,2470.156,2020-6-03T07:04:51Z
2020-06-03T05:07:10Z,42.805,6.029,13.2974,4.59974,2470.133,2020-6-03T07:07:54Z
2020-06-03T05:10:14Z,42.805,6.029,13.2971,4.59974,2470.156,2020-6-03T07:10:57Z
2020-06-03T05:13:18Z,42.805,6.029,13.2972,4.59973,2470.171,2020-6-03T07:14:01Z
2020-06-03T05:16:21Z,42.805,6.029,13.2973,4.59973,2470.156,2020-6-03T07:17:04Z
2020-06-03T05:19:24Z,42.805,6.029,13.2975,4.59974,2470.156,2020-6-03T07:20:08Z
2020-06-03T05:22:27Z,42.805,6.029,13.2971,4.59974,2470.194,2020-6-03T07:23:11Z
2020-06-03T05:25:31Z,42.805,6.029,13.2975,4.59973,2470.18,2020-6-03T07:26:14Z
2020-06-03T05:28:34Z,42.805,6.029,13.2973,4.59975,2470.18,2020-6-03T07:29:17Z
2020-06-03T05:31:37Z,42.805,6.029,13.2975,4.59974,2470.166,2020-6-03T07:32:21Z
2020-06-03T05:34:40Z,42.805,6.029,13.2976,4.59975,2470.171,2020-6-03T07:35:24Z
2020-06-03T05:37:44Z,42.805,6.029,13.2973,4.59973,2470.171,2020-6-03T07:38:27Z
2020-06-03T05:40:47Z,42.805,6.029,13.2975,4.59973,2470.147,2020-6-03T07:41:30Z
2020-06-03T05:43:50Z,42.805,6.029,13.2976,4.59973,2470.156,2020-6-03T07:44:34Z
2020-06-03T05:46:53Z,42.805,6.029,13.2974,4.59973,2470.133,2020-6-03T07:47:37Z
2020-06-03T05:49:57Z,42.805,6.029,13.2971,4.59974,2470.156,2020-6-03T07:50:40Z
2020-06-03T05:53:00Z,42.805,6.029,13.2970,4.59973,2470.156,2020-6-03T07:53:43Z
2020-06-03T05:56:03Z,42.805,6.029,13.2972,4.59973,2470.133,2020-6-03T07:56:46Z
2020-06-03T05:59:06Z,42.805,6.029,13.2969,4.59973,2470.18,2020-6-03T07:59:50Z
2020-06-03T06:02:09Z,42.805,6.029,13.2976,4.59973,2470.133,2020-6-03T08:02:53Z
2020-06-03T06:05:13Z,42.805,6.029,13.2974,4.59973,2470.133,2020-6-03T08:05:56Z
2020-06-03T06:08:16Z,42.805,6.029,13.2973,4.59975,2470.156,2020-6-03T08:08:59Z
2020-06-03T06:11:19Z,42.805,6.029,13.2976,4.59973,2470.147,2020-6-03T08:12:03Z
2020-06-03T06:14:22Z,42.805,6.029,13.2974,4.59974,2470.133,2020-6-03T08:15:06Z
2020-06-03T06:17:25Z,42.805,6.029,13.2972,4.59973,2470.133,2020-6-03T08:18:09Z
2020-06-03T06:20:29Z,42.805,6.029,13.2970,4.59973,2470.156,2020-6-03T08:21:12Z
2020-06-03T06:23:32Z,42.805,6.029,13.2972,4.59973,2470.11,2020-6-03T08:24:16Z
2020-06-03T06:26:35Z,42.805,6.029,13.2971,4.59974,2470.147,2020-6-03T08:27:19Z
2020-06-03T06:29:39Z,42.805,6.029,13.2972,4.59974,2470.171,2020-6-03T08:30:22Z
2020-06-03T06:32:42Z,42.805,6.029,13.2974,4.59974,2470.133,2020-6-03T08:33:26Z
2020-06-03T06:35:45Z,42.805,6.029,13.2974,4.59973,2470.171,2020-6-03T08:36:29Z
2020-06-03T06:38:49Z,42.805,6.029,13.2971,4.59973,2470.133,2020-6-03T08:39:32Z
2020-06-03T06:41:52Z,42.805,6.029,13.2972,4.59972,2470.147,2020-6-03T08:42:35Z
2020-06-03T06:44:55Z,42.805,6.029,13.2974,4.59973,2470.124,2020-6-03T08:45:38Z
2020-06-03T06:47:58Z,42.805,6.029,13.2972,4.59973,2470.11,2020-6-03T08:48:42Z
2020-06-03T06:51:02Z,42.805,6.029,13.2972,4.59974,2470.087,2020-6-03T08:51:45Z
2020-06-03T06:54:05Z,42.805,6.029,13.2974,4.59973,2470.11,2020-6-03T08:54:48Z
2020-06-03T06:57:08Z,42.805,6.029,13.2973,4.59973,2470.11,2020-6-03T08:57:51Z
2020-06-03T07:00:11Z,42.805,6.029,13.2971,4.59973,2470.11,2020-6-03T09:00:55Z
2020-06-03T07:03:14Z,42.805,6.029,13.2974,4.59973,2470.133,2020-6-03T09:03:58Z
2020-06-03T07:06:18Z,42.805,6.029,13.2971,4.59973,2470.11,2020-6-03T09:07:01Z
2020-06-03T07:09:21Z,42.805,6.029,13.2973,4.59973,2470.133,2020-6-03T09:10:04Z
2020-06-03T07:12:24Z,42.805,6.029,13.2973,4.59973,2470.11,2020-6-03T09:13:08Z
2020-06-03T07:15:27Z,42.805,6.029,13.2978,4.59973,2470.087,2020-6-03T09:16:11Z
2020-06-03T07:18:31Z,42.805,6.029,13.2973,4.59973,2470.124,2020-6-03T09:19:14Z
2020-06-03T07:21:34Z,42.805,6.029,13.2970,4.59973,2470.096,2020-6-03T09:22:17Z
2020-06-03T07:24:37Z,42.805,6.029,13.2972,4.59972,2470.1,2020-6-03T09:25:21Z
2020-06-03T07:27:40Z,42.805,6.029,13.2970,4.59973,2470.11,2020-6-03T09:28:24Z
2020-06-03T07:30:44Z,42.805,6.029,13.2972,4.59973,2470.124,2020-6-03T09:31:27Z
2020-06-03T07:33:47Z,42.805,6.029,13.2969,4.59973,2470.11,2020-6-03T09:34:30Z
2020-06-03T07:36:50Z,42.805,6.029,13.2974,4.59973,2470.1,2020-6-03T09:37:33Z
2020-06-03T07:39:53Z,42.805,6.029,13.2974,4.59973,2470.1,2020-6-03T09:40:37Z
2020-06-03T07:42:57Z,42.805,6.029,13.2971,4.59973,2470.063,2020-6-03T09:43:40Z
2020-06-03T07:46:00Z,42.805,6.029,13.2974,4.59972,2470.11,2020-6-03T09:46:43Z
2020-06-03T07:49:03Z,42.805,6.029,13.2971,4.59973,2470.087,2020-6-03T09:49:46Z
2020-06-03T07:52:06Z,42.805,6.029,13.2974,4.59973,2470.1,2020-6-03T09:52:50Z
2020-06-03T07:55:09Z,42.805,6.029,13.2974,4.59972,2470.087,2020-6-03T09:55:53Z
2020-06-03T07:58:13Z,42.805,6.029,13.2973,4.59975,2470.063,2020-6-03T09:58:56Z
2020-06-03T08:01:16Z,42.805,6.029,13.2971,4.59973,2470.063,2020-6-03T10:01:59Z
2020-06-03T08:04:19Z,42.805,6.029,13.2972,4.59973,2470.04,2020-6-03T10:05:03Z
2020-06-03T08:07:22Z,42.805,6.029,13.2972,4.59973,2470.04,2020-6-03T10:08:06Z
2020-06-03T08:10:26Z,42.805,6.029,13.2976,4.59972,2470.087,2020-6-03T10:11:09Z
2020-06-03T08:13:29Z,42.805,6.029,13.2975,4.59973,2470.04,2020-6-03T10:14:12Z
2020-06-03T08:16:32Z,42.805,6.029,13.2971,4.59973,2470.053,2020-6-03T10:17:15Z
2020-06-03T08:19:35Z,42.805,6.029,13.2975,4.59973,2470.063,2020-6-03T10:20:19Z
2020-06-03T08:22:38Z,42.805,6.029,13.2971,4.59973,2470.077,2020-6-03T10:23:22Z
2020-06-03T08:25:42Z,42.805,6.029,13.2974,4.59973,2470.017,2020-6-03T10:26:25Z
2020-06-03T08:28:45Z,42.805,6.029,13.2971,4.59973,2470.04,2020-6-03T10:29:28Z
2020-06-03T08:31:48Z,42.805,6.029,13.2975,4.59973,2470.053,2020-6-03T10:32:32Z
2020-06-03T08:34:51Z,42.805,6.029,13.2973,4.59973,2470.03,2020-6-03T10:35:35Z
2020-06-03T08:37:55Z,42.805,6.029,13.2970,4.59973,2470.03,2020-6-03T10:38:38Z
2020-06-03T08:40:58Z,42.805,6.029,13.2973,4.59973,2470.063,2020-6-03T10:41:41Z
2020-06-03T08:44:01Z,42.805,6.029,13.2974,4.59972,2470.053,2020-6-03T10:44:44Z
2020-06-03T08:47:04Z,42.805,6.029,13.2971,4.59972,2470.017,2020-6-03T10:47:48Z
2020-06-03T08:50:07Z,42.805,6.029,13.2976,4.59973,2470.017,2020-6-03T10:50:51Z
2020-06-03T08:53:11Z,42.805,6.029,13.2973,4.59972,2470.017,2020-6-03T10:53:54Z
2020-06-03T08:56:14Z,42.805,6.029,13.2970,4.59973,2470.017,2020-6-03T10:56:57Z
2020-06-03T08:59:17Z,42.805,6.029,13.2969,4.59973,2470.007,2020-6-03T11:00:01Z
2020-06-03T09:02:20Z,42.805,6.029,13.2974,4.59973,2470.017,2020-6-03T11:03:04Z
2020-06-03T09:05:24Z,42.805,6.029,13.2970,4.59972,2470.03,2020-6-03T11:06:07Z
2020-06-03T09:08:27Z,42.805,6.029,13.2971,4.59973,2470.03,2020-6-03T11:09:10Z
2020-06-03T09:11:30Z,42.805,6.029,13.2972,4.59972,2470.04,2020-6-03T11:12:13Z
2020-06-03T09:14:33Z,42.805,6.029,13.2976,4.59972,2470.017,2020-6-03T11:15:17Z
2020-06-03T09:17:36Z,42.805,6.029,13.2969,4.59973,2469.993,2020-6-03T11:18:20Z
2020-06-03T09:20:40Z,42.805,6.029,13.2970,4.59972,2469.984,2020-6-03T11:21:23Z
2020-06-03T09:23:43Z,42.805,6.029,13.2972,4.59972,2470.04,2020-6-03T11:24:26Z
2020-06-03T09:26:46Z,42.805,6.029,13.2973,4.59971,2469.97,2020-6-03T11:27:30Z
2020-06-03T09:29:49Z,42.805,6.029,13.2974,4.59973,2469.993,2020-6-03T11:30:33Z
2020-06-03T09:32:53Z,42.805,6.029,13.2970,4.59973,2469.96,2020-6-03T11:33:36Z
2020-06-03T09:35:56Z,42.805,6.029,13.2970,4.59971,2470.007,2020-6-03T11:36:39Z
2020-06-03T09:38:59Z,42.805,6.029,13.2971,4.59972,2469.993,2020-6-03T11:39:43Z
2020-06-03T09:42:02Z,42.805,6.029,13.2974,4.59973,2469.97,2020-6-03T11:42:46Z
2020-06-03T09:45:06Z,42.805,6.029,13.2971,4.59972,2469.97,2020-6-03T11:45:49Z
